FDX1454 KMEM-KBDL

Flight info

Callsign FDX1454
Flight time 2h 2m
Altitude 37000
Route CRSON7 HUMMS TINGS CREEP Q29 JHW Q82 MEMMS WILET STELA1
Aircraft B752/M-VGDW/C

Departure

Time 2026-05-07 02:12
Airport Memphis International Airport (KMEM)

Arrival

Time 2026-05-07 04:15
Airport Bradley International Airport (KBDL)
Time Latitude Longitude Altitude Speed Heading
2026-05-07 01:37 35.06442 -89.97308 347 ft 0 kts 359°
2026-05-07 01:50 35.06438 -89.97308 346 ft 2 kts 359°
2026-05-07 01:50 35.06428 -89.97308 346 ft 2 kts 359°
2026-05-07 01:50 35.06414 -89.97304 346 ft 2 kts 335°
2026-05-07 01:50 35.06401 -89.97295 346 ft 2 kts 317°
2026-05-07 01:51 35.06392 -89.97281 346 ft 2 kts 298°
2026-05-07 01:51 35.06387 -89.97264 346 ft 2 kts 278°
2026-05-07 01:51 35.06386 -89.97256 346 ft 1 kts 270°
2026-05-07 01:51 35.06386 -89.97252 346 ft 0 kts 271°
2026-05-07 01:52 35.06386 -89.97253 346 ft 0 kts 271°
2026-05-07 01:54 35.06386 -89.97279 346 ft 5 kts 270°
2026-05-07 01:54 35.06386 -89.97342 346 ft 8 kts 269°
2026-05-07 01:54 35.06386 -89.97400 346 ft 4 kts 270°
2026-05-07 01:55 35.06385 -89.97433 346 ft 3 kts 270°
2026-05-07 01:55 35.06385 -89.97458 346 ft 0 kts 270°
2026-05-07 01:57 35.06385 -89.97459 346 ft 0 kts 270°
2026-05-07 01:57 35.06385 -89.97478 346 ft 3 kts 270°
2026-05-07 01:57 35.06375 -89.97523 346 ft 6 kts 233°
2026-05-07 01:58 35.06369 -89.97530 346 ft 0 kts 220°
2026-05-07 01:58 35.06362 -89.97536 346 ft 4 kts 211°
2026-05-07 01:58 35.06321 -89.97543 346 ft 6 kts 180°
2026-05-07 01:58 35.06281 -89.97543 346 ft 5 kts 179°
2026-05-07 01:59 35.06244 -89.97543 346 ft 5 kts 179°
2026-05-07 01:59 35.06208 -89.97543 346 ft 5 kts 180°
2026-05-07 01:59 35.06158 -89.97542 346 ft 8 kts 179°
2026-05-07 01:59 35.06089 -89.97541 346 ft 10 kts 179°
2026-05-07 02:00 35.06024 -89.97540 346 ft 8 kts 179°
2026-05-07 02:00 35.05969 -89.97531 346 ft 9 kts 165°
2026-05-07 02:00 35.05897 -89.97507 346 ft 12 kts 163°
2026-05-07 02:00 35.05790 -89.97483 346 ft 18 kts 180°
2026-05-07 02:01 35.05655 -89.97488 346 ft 20 kts 179°
2026-05-07 02:01 35.05516 -89.97485 346 ft 18 kts 179°
2026-05-07 02:01 35.05393 -89.97482 346 ft 16 kts 179°
2026-05-07 02:01 35.05272 -89.97480 346 ft 20 kts 179°
2026-05-07 02:02 35.05123 -89.97475 346 ft 21 kts 178°
2026-05-07 02:02 35.04984 -89.97472 346 ft 18 kts 180°
2026-05-07 02:02 35.04861 -89.97471 346 ft 17 kts 179°
2026-05-07 02:02 35.04734 -89.97468 346 ft 19 kts 179°
2026-05-07 02:03 35.04578 -89.97465 347 ft 24 kts 179°
2026-05-07 02:03 35.04411 -89.97462 346 ft 23 kts 179°
2026-05-07 02:03 35.04258 -89.97459 346 ft 20 kts 179°
2026-05-07 02:03 35.04113 -89.97455 346 ft 22 kts 179°
2026-05-07 02:04 35.03940 -89.97452 346 ft 24 kts 179°
2026-05-07 02:04 35.03776 -89.97448 346 ft 22 kts 179°
2026-05-07 02:04 35.03630 -89.97446 346 ft 19 kts 179°
2026-05-07 02:04 35.03499 -89.97443 346 ft 17 kts 179°
2026-05-07 02:05 35.03385 -89.97440 346 ft 15 kts 179°
2026-05-07 02:05 35.03279 -89.97438 346 ft 16 kts 179°
2026-05-07 02:05 35.03154 -89.97436 346 ft 19 kts 179°
2026-05-07 02:05 35.03025 -89.97433 346 ft 17 kts 179°
2026-05-07 02:06 35.02909 -89.97430 346 ft 15 kts 179°
2026-05-07 02:06 35.02795 -89.97428 346 ft 17 kts 179°
2026-05-07 02:06 35.02676 -89.97425 346 ft 15 kts 179°
2026-05-07 02:06 35.02579 -89.97423 346 ft 12 kts 179°
2026-05-07 02:07 35.02498 -89.97421 346 ft 9 kts 179°
2026-05-07 02:07 35.02445 -89.97424 346 ft 0 kts 200°
2026-05-07 02:10 35.02441 -89.97425 346 ft 2 kts 207°
2026-05-07 02:10 35.02425 -89.97450 346 ft 6 kts 246°
2026-05-07 02:10 35.02417 -89.97513 346 ft 7 kts 275°
2026-05-07 02:11 35.02443 -89.97547 346 ft 5 kts 335°
2026-05-07 02:11 35.02467 -89.97553 346 ft 0 kts 356°
2026-05-07 02:11 35.02527 -89.97555 346 ft 31 kts 359°
2026-05-07 02:12 35.03012 -89.97566 347 ft 105 kts 359°
2026-05-07 02:12 35.03955 -89.97588 428 ft 160 kts
2026-05-07 02:12 35.05154 -89.97575 1028 ft 181 kts
2026-05-07 02:12 35.06390 -89.97459 1947 ft 185 kts
2026-05-07 02:13 35.07727 -89.97222 2530 ft 207 kts 11°
2026-05-07 02:13 35.09219 -89.96931 3222 ft 226 kts 10°
2026-05-07 02:13 35.10278 -89.96718 3670 ft 239 kts 10°
2026-05-07 02:13 35.12542 -89.96246 4711 ft 258 kts
2026-05-07 02:14 35.14357 -89.95861 5350 ft 273 kts
2026-05-07 02:14 35.16204 -89.95463 6533 ft 271 kts
2026-05-07 02:14 35.18101 -89.95057 7316 ft 282 kts
2026-05-07 02:14 35.20037 -89.94638 8216 ft 288 kts
2026-05-07 02:15 35.21983 -89.94006 9013 ft 304 kts 20°
2026-05-07 02:15 35.23786 -89.92490 9763 ft 321 kts 35°
2026-05-07 02:15 35.25518 -89.90739 10442 ft 334 kts 34°
2026-05-07 02:15 35.27370 -89.88892 10812 ft 356 kts 35°
2026-05-07 02:16 35.29352 -89.86891 11226 ft 376 kts 35°
2026-05-07 02:16 35.31389 -89.84822 11977 ft 383 kts 35°
2026-05-07 02:16 35.33434 -89.82745 12715 ft 390 kts 35°
2026-05-07 02:16 35.35563 -89.80582 13335 ft 400 kts 35°
2026-05-07 02:17 35.37694 -89.78413 14061 ft 406 kts 35°
2026-05-07 02:17 35.39883 -89.76183 14767 ft 413 kts 35°
2026-05-07 02:17 35.42111 -89.73910 15510 ft 419 kts 34°
2026-05-07 02:17 35.44368 -89.71608 16203 ft 425 kts 34°
2026-05-07 02:18 35.46631 -89.69300 16816 ft 433 kts 34°
2026-05-07 02:18 35.48941 -89.66938 17577 ft 435 kts 33°
2026-05-07 02:18 35.51315 -89.64515 18100 ft 446 kts 33°
2026-05-07 02:18 35.53686 -89.62087 18881 ft 447 kts 33°
2026-05-07 02:19 35.56072 -89.59644 19538 ft 451 kts 33°
2026-05-07 02:19 35.58476 -89.57182 20131 ft 456 kts 33°
2026-05-07 02:19 35.60923 -89.54698 20822 ft 457 kts 30°
2026-05-07 02:19 35.63554 -89.52559 21413 ft 453 kts 21°
2026-05-07 02:20 35.66280 -89.50554 22024 ft 457 kts 22°
2026-05-07 02:20 35.68988 -89.48550 22545 ft 464 kts 22°
2026-05-07 02:20 35.71773 -89.46481 23226 ft 465 kts 21°
2026-05-07 02:20 35.74543 -89.44424 23646 ft 473 kts 22°
2026-05-07 02:21 35.77361 -89.42321 24262 ft 475 kts 22°
2026-05-07 02:21 35.80211 -89.40193 24671 ft 484 kts 21°
2026-05-07 02:21 35.83079 -89.38049 25255 ft 487 kts 21°
2026-05-07 02:21 35.85991 -89.35872 25682 ft 494 kts 22°
2026-05-07 02:22 35.88921 -89.33677 26246 ft 496 kts 22°
2026-05-07 02:22 35.91865 -89.31467 26713 ft 501 kts 22°
2026-05-07 02:22 35.94882 -89.29208 27041 ft 508 kts 22°
2026-05-07 02:22 35.97889 -89.26944 27643 ft 508 kts 22°
2026-05-07 02:23 36.00900 -89.24685 27954 ft 515 kts 23°
2026-05-07 02:23 36.02933 -89.23156 28284 ft 516 kts 22°
2026-05-07 02:23 36.07061 -89.20048 28801 ft 523 kts 23°
2026-05-07 02:23 36.10182 -89.17695 29174 ft 528 kts 23°
2026-05-07 02:24 36.12283 -89.16113 29316 ft 533 kts 23°
2026-05-07 02:24 36.15402 -89.13748 30039 ft 528 kts 22°
2026-05-07 02:24 36.19598 -89.10582 30332 ft 537 kts 22°
2026-05-07 02:24 36.21719 -89.08974 30691 ft 537 kts 21°
2026-05-07 02:25 36.25979 -89.05747 31202 ft 540 kts 21°
2026-05-07 02:25 36.28149 -89.04108 31239 ft 547 kts 22°
2026-05-07 02:25 36.32440 -89.00845 32007 ft 541 kts 21°
2026-05-07 02:25 36.35618 -88.98427 32506 ft 539 kts 21°
2026-05-07 02:26 36.37774 -88.96796 32729 ft 541 kts 21°
2026-05-07 02:26 36.42059 -88.93545 33226 ft 542 kts 20°
2026-05-07 02:26 36.45269 -88.91107 33652 ft 541 kts 19°
2026-05-07 02:26 36.47367 -88.89515 33896 ft 542 kts 20°
2026-05-07 02:27 36.51648 -88.86252 34639 ft 537 kts 20°
2026-05-07 02:27 36.54821 -88.83835 35073 ft 536 kts 19°
2026-05-07 02:27 36.58007 -88.81407 35449 ft 535 kts 19°
2026-05-07 02:27 36.61128 -88.79022 35949 ft 533 kts 18°
2026-05-07 02:28 36.64288 -88.76616 36224 ft 533 kts 19°
2026-05-07 02:28 36.67439 -88.74201 36668 ft 529 kts 19°
2026-05-07 02:28 36.70565 -88.71809 37051 ft 525 kts 18°
2026-05-07 02:28 36.73666 -88.69430 37048 ft 524 kts 18°
2026-05-07 02:29 36.79890 -88.64662 37076 ft 528 kts 18°
2026-05-07 02:29 36.85128 -88.60641 37093 ft 534 kts 18°
2026-05-07 02:30 36.92514 -88.54948 37081 ft 534 kts 19°
2026-05-07 02:30 36.97796 -88.50877 37099 ft 540 kts 18°
2026-05-07 02:31 37.05166 -88.45169 37104 ft 532 kts 18°
2026-05-07 02:31 37.11503 -88.40263 37087 ft 534 kts 18°
2026-05-07 02:32 37.17853 -88.35334 37087 ft 537 kts 18°
2026-05-07 02:32 37.23084 -88.31261 37060 ft 535 kts 19°
2026-05-07 02:33 37.30306 -88.25079 37082 ft 554 kts 31°
2026-05-07 02:33 37.35688 -88.17937 37065 ft 569 kts 39°
2026-05-07 02:34 37.40069 -88.11740 37063 ft 569 kts 40°
2026-05-07 02:34 37.46169 -88.03049 37071 ft 569 kts 39°
2026-05-07 02:35 37.51382 -87.95593 37078 ft 568 kts 39°
2026-05-07 02:35 37.56591 -87.88125 37079 ft 567 kts 40°
2026-05-07 02:36 37.61773 -87.80680 37078 ft 568 kts 39°
2026-05-07 02:36 37.66979 -87.73184 37082 ft 570 kts 40°
2026-05-07 02:37 37.72182 -87.65668 37093 ft 568 kts 40°
2026-05-07 02:37 37.76497 -87.59425 37099 ft 569 kts 39°
2026-05-07 02:38 37.81683 -87.51907 37096 ft 569 kts 39°
2026-05-07 02:38 37.87743 -87.43102 37099 ft 570 kts 39°
2026-05-07 02:39 37.92935 -87.35534 37107 ft 569 kts 40°
2026-05-07 02:39 37.98106 -87.27984 37081 ft 573 kts 40°
2026-05-07 02:40 38.02465 -87.21603 37082 ft 574 kts 41°
2026-05-07 02:40 38.08507 -87.12732 37079 ft 571 kts 40°
2026-05-07 02:41 38.13721 -87.05070 37070 ft 574 kts 41°
2026-05-07 02:41 38.18916 -86.97402 37068 ft 571 kts 40°
2026-05-07 02:42 38.24062 -86.89796 37072 ft 569 kts 40°
2026-05-07 02:42 38.28355 -86.83442 37074 ft 573 kts 40°
2026-05-07 02:43 38.34403 -86.74459 37071 ft 574 kts 40°
2026-05-07 02:43 38.39548 -86.66799 37071 ft 573 kts 40°
2026-05-07 02:44 38.43856 -86.60374 37082 ft 576 kts 40°
2026-05-07 02:44 38.49024 -86.52647 37077 ft 574 kts 40°
2026-05-07 02:45 38.54199 -86.44888 37068 ft 574 kts 40°
2026-05-07 02:45 38.60225 -86.35834 37067 ft 574 kts 40°
2026-05-07 02:46 38.65356 -86.28107 37039 ft 576 kts 41°
2026-05-07 02:46 38.69656 -86.21606 37040 ft 576 kts 40°
2026-05-07 02:47 38.74799 -86.13823 37042 ft 574 kts 40°
2026-05-07 02:47 38.80843 -86.04652 37042 ft 578 kts 40°
2026-05-07 02:48 38.85983 -85.96828 37049 ft 574 kts 40°
2026-05-07 02:48 38.91102 -85.89024 37050 ft 576 kts 41°
2026-05-07 02:49 38.95396 -85.82455 37046 ft 575 kts 40°
2026-05-07 02:49 39.01367 -85.73312 37054 ft 577 kts 40°
2026-05-07 02:50 39.06532 -85.65373 37058 ft 581 kts 40°
2026-05-07 02:50 39.11660 -85.57463 37051 ft 573 kts 40°
2026-05-07 02:51 39.16742 -85.49623 37046 ft 576 kts 40°
2026-05-07 02:51 39.21862 -85.41698 37055 ft 577 kts 41°
2026-05-07 02:52 39.26992 -85.33733 37044 ft 578 kts 41°
2026-05-07 02:52 39.31239 -85.27126 37039 ft 577 kts 41°
2026-05-07 02:53 39.36361 -85.19134 37041 ft 576 kts 41°
2026-05-07 02:53 39.42290 -85.09864 37029 ft 575 kts 40°
2026-05-07 02:54 39.46531 -85.03223 37029 ft 578 kts 42°
2026-05-07 02:54 39.51609 -84.95238 37028 ft 578 kts 41°
2026-05-07 02:55 39.56691 -84.87231 37044 ft 575 kts 41°
2026-05-07 02:55 39.62612 -84.77882 37052 ft 577 kts 42°
2026-05-07 02:56 39.66830 -84.71202 37051 ft 577 kts 41°
2026-05-07 02:56 39.71912 -84.63137 37049 ft 577 kts 41°
2026-05-07 02:57 39.76955 -84.55111 37047 ft 576 kts 42°
2026-05-07 02:57 39.82863 -84.45677 37060 ft 576 kts 41°
2026-05-07 02:58 39.87062 -84.38961 37067 ft 575 kts 41°
2026-05-07 02:58 39.92079 -84.30904 37035 ft 577 kts 44°
2026-05-07 02:59 39.95526 -84.25710 37053 ft 567 kts 33°
2026-05-07 02:59 39.97471 -84.23402 37057 ft 560 kts 28°
2026-05-07 02:59 40.03241 -84.16624 37038 ft 560 kts 32°
2026-05-07 03:00 40.08872 -84.09624 37038 ft 562 kts 33°
2026-05-07 03:00 40.14463 -84.02554 36986 ft 556 kts 33°
2026-05-07 03:01 40.20016 -83.95499 37045 ft 563 kts 33°
2026-05-07 03:01 40.26561 -83.87136 37042 ft 561 kts 33°
2026-05-07 03:02 40.31150 -83.81261 37048 ft 559 kts 33°
2026-05-07 03:02 40.36747 -83.74086 37049 ft 563 kts 33°
2026-05-07 03:03 40.42318 -83.66919 37040 ft 561 kts 34°
2026-05-07 03:03 40.47865 -83.59769 37047 ft 564 kts 33°
2026-05-07 03:04 40.53437 -83.52562 37047 ft 560 kts 34°
2026-05-07 03:04 40.58987 -83.45370 37047 ft 561 kts 33°
2026-05-07 03:05 40.64513 -83.38196 37047 ft 561 kts 34°
2026-05-07 03:05 40.69978 -83.30856 37031 ft 572 kts 42°
2026-05-07 03:06 40.74947 -83.22558 37032 ft 575 kts 44°
2026-05-07 03:06 40.79804 -83.14312 37030 ft 571 kts 44°
2026-05-07 03:07 40.84693 -83.05984 37033 ft 574 kts 44°
2026-05-07 03:07 40.90325 -82.96347 37015 ft 573 kts 44°
2026-05-07 03:08 40.94382 -82.89384 37017 ft 573 kts 44°
2026-05-07 03:08 40.99222 -82.81061 37024 ft 574 kts 45°
2026-05-07 03:09 41.04042 -82.72742 37023 ft 572 kts 44°
2026-05-07 03:09 41.08869 -82.64390 37033 ft 568 kts 45°
2026-05-07 03:10 41.13594 -82.56029 37037 ft 575 kts 51°
2026-05-07 03:10 41.17548 -82.46723 37018 ft 581 kts 56°
2026-05-07 03:11 41.21346 -82.37382 37029 ft 575 kts 56°
2026-05-07 03:11 41.25744 -82.26486 37006 ft 578 kts 57°
2026-05-07 03:12 41.28894 -82.18640 37014 ft 575 kts 57°
2026-05-07 03:12 41.32660 -82.09251 37015 ft 583 kts 58°
2026-05-07 03:13 41.36103 -81.99432 37022 ft 592 kts 62°
2026-05-07 03:13 41.39327 -81.89420 37023 ft 589 kts 64°
2026-05-07 03:14 41.42522 -81.79420 37036 ft 590 kts 64°
2026-05-07 03:15 41.47311 -81.64336 37024 ft 589 kts 63°
2026-05-07 03:15 41.50463 -81.54365 37030 ft 587 kts 63°
2026-05-07 03:16 41.53618 -81.44350 37043 ft 589 kts 64°
2026-05-07 03:16 41.56771 -81.34291 37038 ft 588 kts 65°
2026-05-07 03:17 41.59905 -81.24269 37004 ft 587 kts 64°
2026-05-07 03:17 41.63030 -81.14214 36992 ft 589 kts 64°
2026-05-07 03:18 41.66147 -81.04172 37000 ft 587 kts 64°
2026-05-07 03:18 41.69250 -80.94126 36990 ft 586 kts 64°
2026-05-07 03:19 41.72344 -80.84072 37005 ft 587 kts 64°
2026-05-07 03:19 41.75416 -80.74057 37016 ft 588 kts 64°
2026-05-07 03:20 41.78505 -80.63938 37020 ft 584 kts 64°
2026-05-07 03:20 41.81453 -80.53825 37029 ft 587 kts 68°
2026-05-07 03:21 41.84227 -80.43542 37017 ft 586 kts 67°
2026-05-07 03:21 41.86977 -80.33368 37019 ft 584 kts 68°
2026-05-07 03:22 41.89731 -80.23130 37024 ft 586 kts 68°
2026-05-07 03:22 41.92482 -80.12865 36999 ft 584 kts 69°
2026-05-07 03:23 41.95202 -80.02673 37004 ft 586 kts 68°
2026-05-07 03:23 41.97944 -79.92345 37014 ft 586 kts 68°
2026-05-07 03:24 42.00651 -79.82120 36991 ft 586 kts 69°
2026-05-07 03:24 42.03348 -79.71882 37003 ft 582 kts 68°
2026-05-07 03:25 42.06050 -79.61597 37020 ft 585 kts 68°
2026-05-07 03:25 42.08723 -79.51354 36990 ft 584 kts 68°
2026-05-07 03:26 42.11398 -79.41080 36985 ft 584 kts 69°
2026-05-07 03:26 42.14069 -79.30774 36977 ft 584 kts 70°
2026-05-07 03:27 42.16719 -79.20489 36995 ft 583 kts 69°
2026-05-07 03:27 42.19020 -79.10084 37004 ft 584 kts 79°
2026-05-07 03:28 42.20480 -78.99316 36977 ft 583 kts 79°
2026-05-07 03:28 42.21878 -78.88575 36972 ft 585 kts 81°
2026-05-07 03:29 42.23240 -78.77874 36968 ft 583 kts 80°
2026-05-07 03:29 42.24593 -78.67109 36965 ft 584 kts 82°
2026-05-07 03:30 42.25934 -78.56364 36961 ft 582 kts 81°
2026-05-07 03:30 42.27261 -78.45623 36959 ft 585 kts 82°
2026-05-07 03:31 42.28586 -78.34828 36988 ft 582 kts 81°
2026-05-07 03:31 42.29892 -78.24103 36934 ft 582 kts 82°
2026-05-07 03:32 42.31191 -78.13328 36943 ft 585 kts 82°
2026-05-07 03:32 42.32481 -78.02565 36937 ft 582 kts 82°
2026-05-07 03:33 42.33764 -77.91769 36938 ft 584 kts 82°
2026-05-07 03:33 42.35030 -77.81015 36935 ft 583 kts 82°
2026-05-07 03:34 42.36302 -77.70142 36947 ft 587 kts 82°
2026-05-07 03:34 42.37547 -77.59383 36952 ft 583 kts 83°
2026-05-07 03:35 42.38786 -77.48578 36955 ft 581 kts 82°
2026-05-07 03:35 42.40019 -77.37769 36963 ft 586 kts 82°
2026-05-07 03:36 42.41240 -77.26952 36923 ft 583 kts 82°
2026-05-07 03:36 42.42446 -77.16157 36951 ft 583 kts 82°
2026-05-07 03:37 42.43652 -77.05299 36961 ft 582 kts 83°
2026-05-07 03:37 42.44835 -76.94495 36955 ft 585 kts 83°
2026-05-07 03:38 42.46008 -76.83683 36941 ft 581 kts 82°
2026-05-07 03:38 42.47168 -76.72900 36953 ft 583 kts 83°
2026-05-07 03:39 42.48335 -76.62015 36968 ft 583 kts 82°
2026-05-07 03:39 42.49481 -76.51215 36972 ft 585 kts 83°
2026-05-07 03:40 42.50631 -76.40307 36982 ft 585 kts 82°
2026-05-07 03:40 42.51762 -76.29472 36944 ft 584 kts 83°
2026-05-07 03:41 42.52875 -76.18632 36925 ft 585 kts 83°
2026-05-07 03:41 42.53983 -76.07779 36933 ft 584 kts 84°
2026-05-07 03:42 42.55082 -75.96842 36947 ft 582 kts 84°
2026-05-07 03:42 42.55209 -75.86034 36954 ft 576 kts 102°
2026-05-07 03:43 42.53922 -75.75398 36959 ft 574 kts 105°
2026-05-07 03:43 42.52482 -75.64779 36933 ft 575 kts 107°
2026-05-07 03:44 42.50990 -75.54172 36950 ft 574 kts 107°
2026-05-07 03:44 42.49479 -75.43583 36955 ft 573 kts 107°
2026-05-07 03:45 42.47955 -75.33008 36910 ft 578 kts 107°
2026-05-07 03:45 42.46817 -75.22263 36912 ft 580 kts 95°
2026-05-07 03:46 42.46949 -75.11345 36900 ft 586 kts 91°
2026-05-07 03:46 42.47052 -75.05854 36761 ft 588 kts 91°
2026-05-07 03:46 42.47158 -75.00327 36182 ft 594 kts 91°
2026-05-07 03:46 42.47267 -74.94733 35617 ft 592 kts 91°
2026-05-07 03:47 42.47373 -74.89198 35166 ft 589 kts 91°
2026-05-07 03:47 42.47479 -74.83649 34710 ft 590 kts 92°
2026-05-07 03:47 42.47583 -74.78127 34271 ft 593 kts 91°
2026-05-07 03:47 42.47682 -74.72599 33825 ft 595 kts 91°
2026-05-07 03:48 42.47780 -74.66975 33365 ft 597 kts 91°
2026-05-07 03:48 42.47876 -74.61357 32911 ft 598 kts 91°
2026-05-07 03:48 42.47970 -74.55777 32451 ft 598 kts 91°
2026-05-07 03:48 42.48067 -74.50201 31996 ft 597 kts 92°
2026-05-07 03:49 42.48154 -74.44614 31540 ft 595 kts 91°
2026-05-07 03:49 42.48237 -74.39020 31086 ft 596 kts 91°
2026-05-07 03:49 42.48326 -74.33450 30624 ft 596 kts 93°
2026-05-07 03:49 42.48403 -74.27846 30122 ft 594 kts 92°
2026-05-07 03:50 42.48481 -74.22315 29620 ft 593 kts 92°
2026-05-07 03:50 42.48556 -74.16739 29111 ft 592 kts 92°
2026-05-07 03:50 42.48629 -74.11176 28595 ft 585 kts 93°
2026-05-07 03:50 42.48698 -74.05769 28095 ft 576 kts 92°
2026-05-07 03:51 42.48763 -74.00377 27484 ft 565 kts 92°
2026-05-07 03:51 42.48825 -73.95120 26854 ft 558 kts 92°
2026-05-07 03:51 42.48883 -73.89922 26232 ft 551 kts 92°
2026-05-07 03:51 42.48935 -73.84803 25614 ft 544 kts 92°
2026-05-07 03:52 42.48987 -73.79765 24995 ft 537 kts 92°
2026-05-07 03:52 42.49037 -73.74742 24385 ft 530 kts 92°
2026-05-07 03:52 42.49081 -73.69810 23792 ft 524 kts 91°
2026-05-07 03:52 42.49127 -73.64915 23187 ft 517 kts 92°
2026-05-07 03:53 42.49168 -73.60103 22593 ft 510 kts 92°
2026-05-07 03:53 42.49089 -73.55386 22005 ft 499 kts 99°
2026-05-07 03:53 42.48538 -73.50845 21411 ft 485 kts 108°
2026-05-07 03:53 42.47636 -73.46471 20801 ft 473 kts 116°
2026-05-07 03:54 42.46336 -73.42487 20207 ft 456 kts 127°
2026-05-07 03:54 42.44668 -73.39037 19735 ft 435 kts 137°
2026-05-07 03:54 42.42732 -73.35981 19258 ft 421 kts 141°
2026-05-07 03:54 42.40770 -73.33074 18755 ft 411 kts 142°
2026-05-07 03:55 42.38844 -73.30304 18257 ft 401 kts 143°
2026-05-07 03:55 42.36962 -73.27635 17755 ft 387 kts 143°
2026-05-07 03:55 42.35125 -73.25068 17260 ft 386 kts 143°
2026-05-07 03:55 42.33251 -73.22469 16777 ft 382 kts 143°
2026-05-07 03:56 42.31388 -73.19962 16286 ft 372 kts 147°
2026-05-07 03:56 42.29496 -73.17645 15789 ft 366 kts 150°
2026-05-07 03:56 42.27422 -73.15871 15312 ft 345 kts 165°
2026-05-07 03:56 42.25231 -73.14574 14822 ft 343 kts 167°
2026-05-07 03:57 42.23048 -73.13326 14327 ft 343 kts 167°
2026-05-07 03:57 42.20884 -73.12111 13834 ft 337 kts 167°
2026-05-07 03:57 42.18729 -73.10886 13338 ft 336 kts 167°
2026-05-07 03:57 42.16584 -73.09679 12853 ft 334 kts 167°
2026-05-07 03:58 42.14473 -73.08515 12463 ft 324 kts 167°
2026-05-07 03:58 42.12416 -73.07367 12111 ft 317 kts 167°
2026-05-07 03:58 42.10399 -73.06243 11720 ft 315 kts 167°
2026-05-07 03:58 42.08363 -73.05113 11303 ft 313 kts 167°
2026-05-07 03:59 42.06388 -73.04013 10920 ft 305 kts 167°
2026-05-07 03:59 42.04450 -73.02931 10493 ft 299 kts 167°
2026-05-07 03:59 42.02554 -73.01873 10115 ft 294 kts 167°
2026-05-07 03:59 42.00685 -73.00829 9758 ft 291 kts 163°
2026-05-07 04:00 41.99008 -72.99197 9391 ft 301 kts 141°
2026-05-07 04:00 41.97679 -72.97067 9009 ft 297 kts 140°
2026-05-07 04:00 41.96200 -72.95152 8642 ft 293 kts 147°
2026-05-07 04:00 41.94677 -72.93362 8272 ft 294 kts 146°
2026-05-07 04:01 41.93133 -72.91567 7896 ft 291 kts 147°
2026-05-07 04:01 41.91614 -72.89815 7602 ft 284 kts 147°
2026-05-07 04:01 41.90120 -72.88105 7344 ft 282 kts 146°
2026-05-07 04:01 41.88615 -72.86410 7108 ft 285 kts 147°
2026-05-07 04:02 41.87096 -72.84699 6858 ft 284 kts 146°
2026-05-07 04:02 41.85607 -72.83028 6614 ft 280 kts 146°
2026-05-07 04:02 41.84118 -72.81364 6368 ft 278 kts 147°
2026-05-07 04:02 41.82634 -72.79730 6119 ft 277 kts 147°
2026-05-07 04:03 41.81151 -72.78114 5853 ft 270 kts 147°
2026-05-07 04:03 41.79698 -72.76539 5590 ft 263 kts 147°
2026-05-07 04:03 41.78292 -72.75006 5338 ft 258 kts 146°
2026-05-07 04:03 41.76910 -72.73515 5076 ft 253 kts 147°
2026-05-07 04:04 41.75590 -72.72086 4971 ft 239 kts 146°
2026-05-07 04:04 41.74294 -72.70679 4992 ft 243 kts 146°
2026-05-07 04:04 41.72961 -72.69235 5004 ft 250 kts 146°
2026-05-07 04:04 41.71616 -72.67779 4989 ft 247 kts 146°
2026-05-07 04:05 41.70270 -72.66342 4987 ft 250 kts 147°
2026-05-07 04:05 41.68906 -72.64878 4988 ft 248 kts 147°
2026-05-07 04:05 41.67582 -72.63444 4989 ft 247 kts 147°
2026-05-07 04:05 41.66352 -72.61824 4979 ft 255 kts 126°
2026-05-07 04:06 41.65774 -72.59520 5039 ft 268 kts 94°
2026-05-07 04:06 41.65830 -72.57022 4892 ft 269 kts 86°
2026-05-07 04:06 41.65965 -72.54563 4630 ft 264 kts 86°
2026-05-07 04:06 41.66079 -72.52150 4385 ft 260 kts 86°
2026-05-07 04:07 41.66182 -72.49766 4134 ft 256 kts 86°
2026-05-07 04:07 41.66282 -72.47415 3883 ft 253 kts 86°
2026-05-07 04:07 41.66596 -72.45136 3652 ft 244 kts 61°
2026-05-07 04:07 41.67631 -72.43481 3479 ft 225 kts 26°
2026-05-07 04:08 41.69052 -72.42818 3271 ft 218 kts 359°
2026-05-07 04:08 41.70550 -72.42951 3057 ft 214 kts 346°
2026-05-07 04:08 41.72007 -72.43236 2964 ft 209 kts 347°
2026-05-07 04:08 41.73463 -72.43510 2976 ft 211 kts 346°
2026-05-07 04:09 41.74923 -72.43830 2995 ft 212 kts 337°
2026-05-07 04:09 41.76106 -72.44875 2993 ft 200 kts 311°
2026-05-07 04:09 41.77084 -72.46192 2975 ft 203 kts 313°
2026-05-07 04:09 41.78105 -72.47531 2985 ft 203 kts 312°
2026-05-07 04:10 41.79100 -72.48852 2977 ft 201 kts 311°
2026-05-07 04:10 41.80092 -72.50176 2982 ft 201 kts 311°
2026-05-07 04:10 41.81083 -72.51507 2992 ft 202 kts 312°
2026-05-07 04:10 41.82060 -72.52820 2960 ft 189 kts 312°
2026-05-07 04:11 41.82951 -72.54019 2959 ft 173 kts 312°
2026-05-07 04:11 41.83785 -72.55145 2734 ft 171 kts 312°
2026-05-07 04:11 41.84620 -72.56275 2516 ft 168 kts 311°
2026-05-07 04:11 41.85445 -72.57392 2305 ft 167 kts 312°
2026-05-07 04:12 41.86241 -72.58468 2108 ft 160 kts 312°
2026-05-07 04:12 41.87002 -72.59499 1875 ft 154 kts 313°
2026-05-07 04:12 41.87739 -72.60497 1657 ft 144 kts 313°
2026-05-07 04:12 41.88402 -72.61391 1487 ft 127 kts 313°
2026-05-07 04:13 41.89000 -72.62196 1290 ft 120 kts 313°
2026-05-07 04:13 41.89601 -72.63020 1150 ft 124 kts 314°
2026-05-07 04:13 41.90210 -72.63825 1014 ft 124 kts 315°
2026-05-07 04:13 41.90832 -72.64653 844 ft 128 kts 313°
2026-05-07 04:14 41.91449 -72.65505 691 ft 127 kts 314°
2026-05-07 04:14 41.92065 -72.66356 501 ft 129 kts 314°
2026-05-07 04:14 41.92699 -72.67210 316 ft 129 kts 315°
2026-05-07 04:14 41.93323 -72.68074 188 ft 120 kts 315°
2026-05-07 04:15 41.93760 -72.68665 186 ft 62 kts 314°
2026-05-07 04:15 41.93973 -72.68958 184 ft 34 kts 314°
2026-05-07 04:15 41.94124 -72.69162 184 ft 23 kts 314°
2026-05-07 04:15 41.94201 -72.69279 184 ft 12 kts 293°
2026-05-07 04:16 41.94191 -72.69370 184 ft 8 kts 231°
2026-05-07 04:16 41.94159 -72.69415 186 ft 6 kts 221°
2026-05-07 04:16 41.94118 -72.69466 188 ft 7 kts 228°
2026-05-07 04:16 41.94109 -72.69514 189 ft 4 kts 279°
2026-05-07 04:17 41.94112 -72.69552 189 ft 3 kts 267°
2026-05-07 04:17 41.94104 -72.69572 190 ft 3 kts 221°
2026-05-07 04:17 41.94077 -72.69592 191 ft 2 kts 207°
2026-05-07 04:17 41.94073 -72.69595 191 ft 0 kts 206°